DW3310 Weather Reports


Display with metric or nautical units.
time (UTC)temp
F
wind
direction
speed
MPH
gust
MPH
rain 1hr
in
rain 24hr
in
rain mn
in
humidity
%
barometer
mb
20260503021503 42 58 0.0 0.0 0.00 0.19 0.19 95 1011.7
20260503020004 42 58 0.0 0.0 0.00 0.19 0.19 95 1011.6
20260503014501 43 35 0.0 0.0 0.00 0.19 0.19 95 1011.7
20260503013002 43 74 0.0 0.0 0.01 0.19 0.19 95 1011.5
20260503011501 43 65 0.0 0.0 0.01 0.19 0.19 95 1011.6
20260503010100 43 72 0.0 0.0 0.01 0.19 0.19 95 1011.5
20260503004605 43 71 0.0 0.0 0.01 0.19 0.19 95 1011.7
20260503003100 43 78 0.0 0.0 0.01 0.18 0.18 95 1011.4
20260503001558 43 75 0.0 0.0 0.01 0.18 0.18 94 1011.8
20260503000057 43 75 0.0 0.0 0.02 0.18 0.18 94 1011.5
20260502234557 43 75 0.0 0.0 0.03 0.18 0.18 94 1011.4
20260502233056 43 75 0.0 0.0 0.04 0.17 0.17 94 1011.3
20260502231556 44 75 0.0 0.0 0.05 0.17 0.17 93 1011.3
20260502230055 44 64 0.0 0.0 0.07 0.16 0.16 93 1011.3
20260502224607 44 69 0.0 0.0 0.07 0.15 0.15 92 1011.2
20260502223054 45 69 0.0 0.0 0.05 0.13 0.13 92 1011.1
20260502221555 45 69 0.0 0.0 0.04 0.12 0.12 91 1011.0
20260502220051 45 69 0.0 0.0 0.01 0.09 0.09 90 1011.0
20260502214551 46 45 0.0 0.0 0.00 0.08 0.08 89 1011.0
20260502213105 46 53 0.0 0.0 0.00 0.08 0.08 89 1011.0
20260502211605 46 86 0.0 0.0 0.00 0.08 0.08 89 1011.0
20260502210049 46 39 0.0 0.0 0.00 0.08 0.08 88 1011.0
20260502204549 46 75 0.0 0.0 0.00 0.08 0.08 88 1010.8
20260502203056 46 82 0.0 0.0 0.00 0.08 0.08 90 1011.1
20260502201544 46 75 0.0 0.0 0.00 0.08 0.08 91 1011.1
20260502200043 45 58 0.0 0.0 0.00 0.08 0.08 92 1011.2
20260502194543 45 71 0.0 0.0 0.00 0.08 0.08 92 1011.4
20260502193039 45 351 0.0 0.0 0.00 0.08 0.08 91 1011.6
20260502191538 45 52 0.0 0.0 0.00 0.08 0.08 90 1011.6
20260502190041 44 24 0.0 0.0 0.00 0.08 0.08 90 1011.7
20260502184549 45 59 0.0 0.0 0.00 0.08 0.08 90 1011.9
20260502183050 45 68 0.0 0.0 0.00 0.08 0.08 90 1012.0
20260502181541 44 82 0.0 0.0 0.00 0.08 0.08 89 1011.8
20260502163040 45 13 0.0 0.0 0.00 0.08 0.08 87 1012.0
20260502161529 45 78 0.0 0.0 0.00 0.08 0.08 88 1012.0
20260502151531 43 58 0.0 0.0 0.00 0.08 0.08 91 1012.4
20260502123020 41 57 0.0 0.0 0.01 0.06 0.06 91 1013.1
20260502121517 41 60 0.0 0.0 0.00 0.05 0.05 91 1013.1
20260502114516 41 60 0.0 0.0 0.01 0.05 0.05 90 1013.0
20260502113016 41 72 0.0 0.0 0.02 0.05 0.05 90 1012.8
20260502111515 41 72 0.0 0.0 0.03 0.05 0.05 89 1012.9
20260502110013 41 72 0.0 0.0 0.04 0.05 0.05 88 1013.0
20260502104519 41 140 0.0 0.0 0.03 0.04 0.04 87 1013.0
20260502103014 41 140 0.0 0.0 0.03 0.03 0.03 85 1013.0
20260502101529 41 126 0.0 0.0 0.02 0.02 0.02 83 1013.1
20260502090109 43 93 0.0 0.0 0.00 0.00 0.00 63 1012.3
20260502070056 45 121 0.0 0.0 0.00 0.00 0.00 48 1013.5
20260502064548 45 47 0.0 0.0 0.00 0.00 0.00 51 1013.3
20260502063040 45 47 0.0 0.0 0.00 0.00 0.00 48 1013.1
20260502061538 45 47 0.0 0.0 0.00 0.00 0.00 48 1012.9
20260502060037 45 47 0.0 0.0 0.00 0.00 0.00 48 1012.9
20260502054534 45 48 0.0 0.0 0.00 0.00 0.00 48 1012.7
20260502053032 45 48 0.0 0.0 0.00 0.00 0.00 48 1012.6
20260502051532 45 48 0.0 0.0 0.00 0.00 0.00 49 1012.6
20260502050033 45 48 0.0 0.0 0.00 0.00 0.00 48 1012.6
20260502044523 45 48 0.0 0.0 0.00 0.00 0.00 48 1012.5
20260502043022 45 47 0.0 0.0 0.00 0.00 0.00 49 1012.5
20260502041521 44 34 0.0 0.0 0.00 0.00 0.00 49 1012.4
20260502040018 44 26 0.0 0.0 0.00 0.00 0.00 50 1012.4
20260502034524 44 327 0.0 0.0 0.00 0.00 0.00 50 1012.3
20260502033016 44 311 0.0 0.0 0.00 0.00 0.00 49 1012.2
20260502031516 45 302 0.0 0.0 0.00 0.00 0.00 47 1012.2
20260502030016 46 302 0.0 0.0 0.00 0.00 0.00 46 1012.2
20260502024515 46 302 0.0 0.0 0.00 0.01 0.00 48 1012.2
20260502023015 45 302 0.0 0.0 0.00 0.01 0.00 47 1012.3